Location: Lake Arresoe
(56.0000°N, 12.5000°E)
Time: 02:11:32
(UTC+02:00)

Resurs 1-4 Rocket - Visible Passes

Search period start: 20 August 2017 00:00
Search period end: 30 August 2017 00:00
Orbit: 799 x 815 km, 98.5° (Epoch: 18 August)

Date Brightness Start Highest point End Pass type
(mag) Time Alt. Az. Time Alt. Az. Time Alt. Az.
20 Aug 3.1 03:01:18 10° NNE 03:06:15 39° E 03:10:11 15° SSE visible
20 Aug 2.6 04:41:12 10° N 04:46:12 45° WNW 04:51:11 10° SW visible
21 Aug 3.7 02:37:00 10° NE 02:41:26 27° E 02:45:14 13° SE visible
21 Aug 2.2 04:16:30 10° NNE 04:21:44 65° WNW 04:26:18 13° SSW visible
22 Aug 4.2 02:12:57 10° NE 02:16:32 18° E 02:20:08 10° SE visible
22 Aug 2.1 03:51:52 10° NNE 03:57:11 87° ESE 04:01:21 17° SSW visible
23 Aug 4.5 01:49:33 10° ENE 01:51:33 12° E 01:53:34 10° ESE visible
23 Aug 2.5 03:27:19 10° NNE 03:32:33 60° ESE 03:36:24 18° S visible
23 Aug 3.1 05:07:33 10° N 05:12:09 31° WNW 05:16:44 10° WSW visible
24 Aug 3.1 03:02:51 10° NNE 03:07:50 40° E 03:11:26 17° SSE visible
24 Aug 2.7 04:42:47 10° N 04:47:45 44° WNW 04:52:31 11° SW visible
25 Aug 3.7 02:38:33 10° NNE 02:43:02 28° E 02:46:29 15° SE visible
25 Aug 2.2 04:18:05 10° NNE 04:23:18 63° WNW 04:27:34 15° SW visible
26 Aug 4.2 02:14:28 10° NE 02:18:09 19° E 02:21:32 11° SE visible
26 Aug 2.1 03:53:27 10° NNE 03:58:45 90° ESE 04:02:36 19° SSW visible
27 Aug 4.5 01:50:58 10° ENE 01:53:10 12° E 01:55:22 10° ESE visible
27 Aug 2.4 03:28:53 10° NNE 03:34:08 62° ESE 03:37:39 21° S visible
27 Aug 3.1 05:09:09 10° N 05:13:43 31° WNW 05:18:16 10° WSW visible
28 Aug 3.0 03:04:25 10° NNE 03:09:26 42° E 03:12:41 20° SSE visible
28 Aug 2.7 04:44:22 10° N 04:49:20 43° WNW 04:53:46 13° SW visible
29 Aug 3.6 02:40:05 10° NNE 02:44:38 28° E 02:47:44 17° SE visible
29 Aug 2.2 04:19:40 10° NNE 04:24:52 61° WNW 04:28:48 18° SW visible
